Weather History for Omaha, NE

Change the Weather History Date:

Wednesday, January 22, 2014

  Actual Average Record
Temperature  
Mean Temperature 13 °F 24 °F  
Max Temperature 27 °F 34 °F 58 °F (1989)
Min Temperature -1 °F 14 °F -19 °F (1883)
Degree Days  
Heating Degree Days 52 41  
Month to date heating degree days 965 923  
Since 1 July heating degree days 3509 3402  
Cooling Degree Days 0 0  
Month to date cooling degree days 0 0  
Year to date cooling degree days 0 0  
Moisture  
Dew Point 6 °F    
Average Humidity 57    
Maximum Humidity 68    
Minimum Humidity 46    
Precipitation  
Precipitation T in 0.02 in 0.94 in (1982)
Month to date precipitation 0.11 0.49  
Year to date precipitation 0.11 0.49  
Snow  
Snow T in 0.20 in - ()
Month to date snowfall 1.4 4.2  
Since 1 July snowfall 4.9 13.2  
Snow Depth 0.00 in    
Sea Level Pressure  
Sea Level Pressure 30.28 in    
Wind  
Wind Speed 17 mph (NNW)    
Max Wind Speed 32 mph    
Max Gust Speed 39 mph    
Visibility 9 miles    
Events Snow    
T = Trace of Precipitation, MM = Missing Value Source: NWS Daily Summary

Daily Weather History Graph

Daily Weather History Graph

Search for Another Location

Airport:

Trip Planner

Search our weather history database for the weather conditions in past years. The results will help you decide how hot, cold, wet, or windy it might be!

Date:

Astronomy

Jan. 22, 2014 Rise Set
Actual Time 7:43 AM CST 5:27 PM CST
Civil Twilight 7:13 AM CST 5:57 PM CST
Nautical Twilight 6:39 AM CST 6:31 PM CST
Astronomical Twilight 6:06 AM CST 7:04 PM CST
Moon No Moon Rise 10:40 AM CST (1/22)
Length of Visible Light 10h 44m
Length of Day
9h 44m
Waning Gibbous, 65% of the Moon is Illuminated
Jan 22
Waning Gibbous
Jan 23
Last Quarter
Jan 30
New
Feb 6
First Quarter
Feb 14
Full

Hourly Weather History & Observations

Time (CST) Temp. Windchill Dew Point Humidity Pressure Visibility Wind Dir Wind Speed Gust Speed Precip Events Conditions
12:52 AM 26.1 °F 14.0 °F 14.0 °F 60% 30.10 in 10.0 mi North 15.0 mph - N/A   Overcast
1:52 AM 26.1 °F 16.2 °F 16.0 °F 66% 30.10 in 10.0 mi North 10.4 mph - N/A   Overcast
2:52 AM 25.0 °F 17.1 °F 15.1 °F 66% 30.11 in 10.0 mi North 6.9 mph - N/A   Overcast
3:14 AM 25.0 °F - 15.1 °F 66% 30.06 in 10.0 mi Calm Calm - N/A   Overcast
3:52 AM 26.1 °F 17.6 °F 17.1 °F 69% 30.11 in 10.0 mi NW 8.1 mph - N/A   Overcast
4:31 AM 27.0 °F 12.5 °F 16.0 °F 63% 30.07 in 10.0 mi NNW 23.0 mph 29.9 mph N/A   Overcast
4:52 AM 25.0 °F 8.6 °F 14.0 °F 63% 30.12 in 10.0 mi NNW 27.6 mph 33.4 mph N/A   Scattered Clouds
5:36 AM 19.0 °F 2.4 °F 9.0 °F 65% 30.12 in 10.0 mi North 21.9 mph 29.9 mph N/A   Overcast
5:52 AM 18.0 °F 1.3 °F 8.1 °F 65% 30.17 in 10.0 mi North 20.7 mph - N/A   Overcast
6:52 AM 18.0 °F 3.1 °F 8.1 °F 65% 30.19 in 9.0 mi North 16.1 mph 23.0 mph 0.00 in Snow Light Snow
7:11 AM 17.1 °F 3.6 °F 8.1 °F 68% 30.15 in 9.0 mi NNW 12.7 mph - 0.00 in Snow Light Snow
7:52 AM 14.0 °F 5.1 °F 7.0 °F 74% 30.21 in 10.0 mi North 5.8 mph - 0.00 in   Partly Cloudy
8:52 AM 17.1 °F - 9.0 °F 71% 30.18 in 10.0 mi Calm Calm - N/A   Partly Cloudy
9:52 AM 21.9 °F 11.0 °F 10.0 °F 60% 30.19 in 10.0 mi NW 10.4 mph - N/A   Scattered Clouds
10:52 AM 23.0 °F 9.6 °F 10.9 °F 60% 30.22 in 10.0 mi North 16.1 mph - N/A   Mostly Cloudy
11:52 AM 24.1 °F 14.4 °F 10.9 °F 57% 30.21 in 10.0 mi North 9.2 mph - N/A   Overcast
12:52 PM 25.0 °F 12.6 °F 12.0 °F 58% 30.21 in 10.0 mi North 15.0 mph - N/A   Overcast
1:26 PM 23.0 °F 9.2 °F 14.0 °F 68% 30.18 in 2.0 mi North 17.3 mph - 0.00 in Snow Light Snow
1:38 PM 23.0 °F 9.2 °F 12.9 °F 65% 30.19 in 3.0 mi NNW 17.3 mph - 0.00 in Snow Light Snow
1:52 PM 25.0 °F 10.6 °F 12.0 °F 58% 30.23 in 9.0 mi North 20.7 mph 26.5 mph 0.00 in   Overcast
2:47 PM 21.2 °F 5.2 °F 12.2 °F 68% 30.22 in 2.0 mi North 21.9 mph 31.1 mph 0.00 in Snow Light Snow
2:52 PM 21.9 °F 5.5 °F 12.9 °F 68% 30.26 in 2.0 mi NNW 24.2 mph 31.1 mph 0.00 in Snow Light Snow
3:04 PM 21.9 °F 4.5 °F 10.9 °F 63% 30.23 in 5.0 mi NNW 27.6 mph 34.5 mph 0.00 in Snow Light Snow
3:12 PM 21.0 °F 3.6 °F 10.9 °F 65% 30.24 in 8.0 mi North 26.5 mph 33.4 mph 0.00 in Snow Light Snow
3:52 PM 18.0 °F -1.7 °F 6.1 °F 60% 30.32 in 10.0 mi North 31.1 mph 39.1 mph 0.00 in   Mostly Cloudy
4:52 PM 12.9 °F -6.1 °F -2.9 °F 49% 30.40 in 10.0 mi North 23.0 mph 29.9 mph N/A   Partly Cloudy
5:52 PM 9.0 °F -11.0 °F -7.1 °F 48% 30.46 in 10.0 mi North 21.9 mph 29.9 mph N/A   Partly Cloudy
6:52 PM 6.1 °F -13.8 °F -9.0 °F 50% 30.51 in 10.0 mi North 19.6 mph - N/A   Partly Cloudy
7:52 PM 3.9 °F -16.6 °F -9.0 °F 55% 30.55 in 10.0 mi North 19.6 mph 26.5 mph N/A   Partly Cloudy
8:52 PM 3.0 °F -17.8 °F -9.9 °F 55% 30.58 in 10.0 mi NNW 19.6 mph 29.9 mph N/A   Partly Cloudy
9:52 PM 1.0 °F -21.4 °F -9.9 °F 60% 30.61 in 10.0 mi NNW 21.9 mph 29.9 mph N/A   Partly Cloudy
10:52 PM -0.0 °F -21.3 °F -11.0 °F 60% 30.64 in 10.0 mi NNW 18.4 mph - N/A   Clear
11:52 PM -0.0 °F -22.4 °F -11.0 °F 60% 30.67 in 10.0 mi North 20.7 mph 31.1 mph N/A   Clear